Change the Weather History Date:

Friday, March 28, 2014

  Actual Average (KTDF) Record (KTDF)
Temperature  
Mean Temperature 54 °F -  
Max Temperature 67 °F 65 °F 84 °F (2007)
Min Temperature 42 °F 38 °F 20 °F (1982)
Degree Days  
Heating Degree Days 10    
Growing Degree Days 4 (Base 50)    
Moisture  
Dew Point 46 °F    
Average Humidity 73    
Maximum Humidity 96    
Minimum Humidity 44    
Precipitation  
Precipitation 0.06 in - - ()
Sea Level Pressure  
Sea Level Pressure 30.17 in    
Wind  
Wind Speed 9 mph (South)    
Max Wind Speed 22 mph    
Max Gust Speed 28 mph    
Visibility 9 miles    
Events Rain    
Averages and records for this station are not official NWS values.
T = Trace of Precipitation, MM = Missing Value Source: NWS Daily Summary

Daily Weather History Graph

Daily Weather History Graph

Search for Another Location

Airport or City:

Trip Planner

Search our weather history database for the weather conditions in past years. The results will help you decide how hot, cold, wet, or windy it might be!

Date:

Astronomy

Mar. 28, 2014 Rise Set
Actual Time 7:06 AM EDT 7:32 PM EDT
Civil Twilight 6:40 AM EDT 7:58 PM EDT
Nautical Twilight 6:09 AM EDT 8:29 PM EDT
Astronomical Twilight 5:39 AM EDT 9:00 PM EDT
Moon 5:31 AM EDT (3/28) 5:30 PM EDT (3/28)
Length of Visible Light 13h 18m
Length of Day
12h 26m
Waning Crescent, 6% of the Moon is Illuminated
Mar 28
Waning Crescent
Mar 30
New
Apr 7
First Quarter
Apr 15
Full
Apr 22
Last Quarter

Hourly Weather History & Observations

Time (EDT) Temp. Windchill Dew Point Humidity Pressure Visibility Wind Dir Wind Speed Gust Speed Precip Events Conditions
12:15 AM 45.3 °F 40.1 °F 24.3 °F 44% 30.27 in 10.0 mi South 10.4 mph - N/A   Clear
12:35 AM 45.1 °F 40.3 °F 27.1 °F 49% 30.27 in 10.0 mi South 9.2 mph - N/A   Clear
12:55 AM 44.8 °F 39.9 °F 29.3 °F 55% 30.26 in 10.0 mi South 9.2 mph - N/A   Clear
1:15 AM 44.6 °F 40.2 °F 30.9 °F 59% 30.26 in 10.0 mi South 8.1 mph - N/A   Clear
1:35 AM 44.6 °F 39.7 °F 31.8 °F 61% 30.26 in 10.0 mi South 9.2 mph - N/A   Clear
1:55 AM 44.2 °F 39.7 °F 32.2 °F 63% 30.25 in 10.0 mi South 8.1 mph - N/A   Clear
2:15 AM 43.9 °F 38.8 °F 33.1 °F 66% 30.24 in 10.0 mi South 9.2 mph - N/A   Clear
2:35 AM 43.9 °F 39.3 °F 33.4 °F 67% 30.24 in 10.0 mi South 8.1 mph - N/A   Clear
2:55 AM 43.7 °F 39.7 °F 34.0 °F 69% 30.23 in 10.0 mi South 6.9 mph - N/A   Clear
3:15 AM 43.3 °F 38.6 °F 34.7 °F 72% 30.23 in 10.0 mi South 8.1 mph - N/A   Clear
3:35 AM 43.0 °F 38.8 °F 34.7 °F 73% 30.23 in 10.0 mi South 6.9 mph - N/A   Clear
3:55 AM 42.8 °F 38.6 °F 34.9 °F 74% 30.22 in 10.0 mi South 6.9 mph - N/A   Clear
4:15 AM 42.8 °F 38.6 °F 35.2 °F 75% 30.21 in 10.0 mi South 6.9 mph - N/A   Clear
4:35 AM 43.0 °F 38.8 °F 35.6 °F 75% 30.21 in 10.0 mi South 6.9 mph - N/A   Clear
4:55 AM 42.8 °F 38.0 °F 36.0 °F 77% 30.20 in 10.0 mi South 8.1 mph - N/A   Clear
5:15 AM 43.3 °F 38.1 °F 36.9 °F 78% 30.20 in 10.0 mi South 9.2 mph - N/A   Clear
5:35 AM 44.1 °F 39.5 °F 37.4 °F 77% 30.19 in 10.0 mi South 8.1 mph - N/A   Clear
5:55 AM 43.9 °F 39.3 °F 37.6 °F 78% 30.18 in 10.0 mi South 8.1 mph - N/A   Clear
6:15 AM 44.6 °F 40.7 °F 38.3 °F 79% 30.18 in 10.0 mi South 6.9 mph - N/A   Clear
6:35 AM 45.5 °F 41.3 °F 39.2 °F 79% 30.18 in 10.0 mi South 8.1 mph - N/A   Clear
6:55 AM 45.7 °F 42.0 °F 39.2 °F 78% 30.19 in 10.0 mi South 6.9 mph - N/A   Clear
7:15 AM 45.5 °F 42.5 °F 39.4 °F 79% 30.20 in 10.0 mi South 5.8 mph - N/A   Clear
7:35 AM 45.7 °F 43.4 °F 39.6 °F 79% 30.20 in 10.0 mi South 4.6 mph - N/A   Clear
8:15 AM 47.7 °F - 40.6 °F 77% 30.20 in 10.0 mi SSW 6.9 mph - N/A   Scattered Clouds
8:35 AM 48.6 °F - 41.0 °F 75% 30.21 in 10.0 mi SSW 6.9 mph - N/A   Scattered Clouds
8:55 AM 49.6 °F - 41.4 °F 73% 30.21 in 10.0 mi South 8.1 mph - N/A   Mostly Cloudy
9:15 AM 50.4 °F - 41.7 °F 72% 30.20 in 10.0 mi SSW 12.7 mph 17.3 mph N/A   Scattered Clouds
9:35 AM 52.2 °F - 42.6 °F 70% 30.20 in 10.0 mi SSW 12.7 mph 18.4 mph N/A   Clear
9:55 AM 54.0 °F - 43.3 °F 67% 30.20 in 10.0 mi SSW 12.7 mph 18.4 mph N/A   Clear
10:15 AM 55.8 °F - 44.1 °F 65% 30.20 in 10.0 mi SSW 15.0 mph 19.6 mph N/A   Clear
10:35 AM 56.7 °F - 44.8 °F 64% 30.20 in 10.0 mi SSW 13.8 mph 20.7 mph N/A   Clear
10:55 AM 57.6 °F - 45.5 °F 64% 30.19 in 10.0 mi SSW 9.2 mph - N/A   Clear
11:15 AM 59.0 °F - 46.0 °F 62% 30.19 in 10.0 mi SSW 11.5 mph - N/A   Scattered Clouds
11:35 AM 60.4 °F - 46.8 °F 61% 30.19 in 10.0 mi SSW 10.4 mph - N/A   Mostly Cloudy
11:55 AM 63.0 °F - 47.8 °F 58% 30.19 in 10.0 mi SSW 9.2 mph - N/A   Mostly Cloudy
12:15 PM 64.9 °F - 49.1 °F 56% 30.18 in 10.0 mi SSW 11.5 mph - N/A   Mostly Cloudy
12:35 PM 65.7 °F - 49.1 °F 55% 30.18 in 10.0 mi SSW 18.4 mph 24.2 mph N/A   Overcast
12:55 PM 65.5 °F - 49.3 °F 56% 30.18 in 10.0 mi SSW 16.1 mph 21.9 mph N/A   Overcast
1:15 PM 66.6 °F - 49.6 °F 54% 30.17 in 10.0 mi SSW 19.6 mph - N/A   Overcast
1:35 PM 66.4 °F - 49.6 °F 55% 30.16 in 10.0 mi SSW 12.7 mph - N/A   Overcast
1:55 PM 66.2 °F - 49.6 °F 55% 30.15 in 10.0 mi SSW 21.9 mph 27.6 mph N/A   Overcast
2:15 PM 65.7 °F - 49.5 °F 56% 30.15 in 10.0 mi SSW 10.4 mph 18.4 mph N/A   Overcast
2:35 PM 66.9 °F - 50.2 °F 55% 30.14 in 10.0 mi SSW 10.4 mph - N/A   Overcast
2:55 PM 67.1 °F - 50.0 °F 54% 30.12 in 10.0 mi SSW 15.0 mph - N/A   Overcast
3:15 PM 66.4 °F - 50.5 °F 57% 30.12 in 10.0 mi SW 15.0 mph - N/A   Overcast
3:35 PM 66.2 °F - 50.4 °F 57% 30.12 in 10.0 mi SSW 11.5 mph - N/A   Overcast
3:55 PM 66.0 °F - 50.9 °F 58% 30.12 in 10.0 mi SSW 15.0 mph 19.6 mph N/A   Overcast
4:15 PM 65.5 °F - 51.6 °F 61% 30.11 in 10.0 mi SSW 9.2 mph - N/A   Overcast
4:35 PM 64.9 °F - 52.7 °F 64% 30.12 in 10.0 mi SSW 11.5 mph - N/A   Overcast
4:55 PM 64.4 °F - 53.6 °F 68% 30.12 in 10.0 mi South 12.7 mph - N/A   Overcast
5:15 PM 63.9 °F - 54.1 °F 71% 30.12 in 10.0 mi South 11.5 mph 17.3 mph N/A   Overcast
5:35 PM 63.5 °F - 54.7 °F 73% 30.12 in 10.0 mi SSW 5.8 mph - N/A   Overcast
5:55 PM 63.0 °F - 54.9 °F 75% 30.12 in 10.0 mi SSW 5.8 mph - N/A   Overcast
6:15 PM 62.6 °F - 54.9 °F 76% 30.13 in 10.0 mi West 4.6 mph - N/A   Overcast
6:35 PM 60.3 °F - 57.0 °F 89% 30.14 in 7.0 mi West 4.6 mph - 0.01 in   Drizzle
6:55 PM 59.2 °F - 56.7 °F 91% 30.13 in 5.0 mi SW 3.5 mph - 0.01 in Rain Rain
7:15 PM 59.0 °F - 56.7 °F 92% 30.13 in 7.0 mi South 3.5 mph - N/A   Light Drizzle
7:35 PM 58.3 °F - 56.5 °F 94% 30.13 in 7.0 mi SSE 4.6 mph - N/A   Overcast
7:55 PM 58.3 °F - 56.5 °F 94% 30.13 in 7.0 mi South 4.6 mph - N/A   Overcast
8:15 PM 58.3 °F - 56.5 °F 94% 30.13 in 10.0 mi SSE 4.6 mph - N/A   Mostly Cloudy
8:35 PM 58.1 °F - 56.3 °F 94% 30.13 in 10.0 mi South 5.8 mph - N/A   Scattered Clouds
8:55 PM 58.3 °F - 56.7 °F 94% 30.13 in 7.0 mi South 4.6 mph - N/A   Light Drizzle
9:15 PM 58.3 °F - 56.8 °F 95% 30.13 in 7.0 mi South 3.5 mph - N/A   Mostly Cloudy
9:35 PM 58.3 °F - 56.8 °F 95% 30.13 in 5.0 mi SSE 3.5 mph - N/A   Overcast
9:55 PM 58.3 °F - 57.2 °F 96% 30.14 in 5.0 mi South 3.5 mph - N/A   Overcast
10:15 PM 58.1 °F - 56.8 °F 96% 30.14 in 5.0 mi Calm Calm - N/A   Overcast
10:35 PM 58.1 °F - 56.8 °F 96% 30.14 in 5.0 mi South 3.5 mph - N/A   Overcast
10:55 PM 58.3 °F - 57.2 °F 96% 30.14 in 5.0 mi South 4.6 mph - N/A Rain Light Rain
11:15 PM 58.3 °F - 57.0 °F 96% 30.13 in 5.0 mi SSE 3.5 mph - N/A Rain Rain
11:35 PM 58.3 °F - 57.2 °F 96% 30.13 in 5.0 mi SSE 3.5 mph - 0.02 in Rain Light Rain
11:55 PM 58.3 °F - 57.2 °F 96% 30.13 in 5.0 mi South 5.8 mph - 0.05 in Rain Light Rain